www.pogodaiklimat.ru

АРХИВ ПОГОДЫ в Ростове-на-Дону

Время (UTC), дата Ветер
(напр.,м/с)
 
Видим.   Явления Облачность Т
(С)
Тd
(С)
f
(%)
Тe
(С)
Тes
(С)
Комфортность P
(гПа)
Po
(гПа)
Тmin
(С)
Tmax
(С)
R
(мм)
S
(см)
00 14.04 СЗ 2 100 м туман ?/? +6.1 +6.1 100 +3 +3 по сезону 1018.5 1009.3
03 14.04 штиль 0 2500 м дымка {туман} 9/9 150 м
[St]
+5.9 +5.6 98 +5 +5 по сезону 1017.9 1008.7 +5.6
06 14.04 СВ 1 2500 м дымка {туман} 10/10 150 м
[St]
+7.2 +6.8 97 +6 +6 по сезону 1018.6 1009.4
09 14.04 Ю 1 4000 м дымка 9/6 450 м
[Sc Ci fib]
+12.9 +8.4 74 +13 +19 тепло 1018.3 1009.3
12 14.04 Ю 3 10 км 9/5 840 м
[Sc Ci fib]
+15.0 +4.6 50 +14 +18 по сезону 1016.6 1007.7
15 14.04 Ю 1 10 км 9/4 600 м
[Sc Ci sp]
+14.1 +5.3 55 +15 +15 тепло 1015.8 1006.9 +15.1
18 14.04 С 1 10 км 8/3 1000 м
[Sc Ac trans]
+11.2 +5.6 68 +11 +11 по сезону 1016.4 1007.4
21 14.04 СЗ 3 10 км 9/0
[Ac trans Ci fib]
+9.9 +6.3 78 +8 +8 по сезону 1016.5 1007.4
00 15.04 С 2 10 км 8/0
[Ac trans Ci sp]
+8.9 +5.3 78 +7 +7 по сезону 1016.4 1007.3
03 15.04 штиль 0 4000 м дымка 8/3 1000 м
[Cb calv Ac trans]
+7.8 +5.7 87 +7 +7 по сезону 1016.8 1007.7 +6.5
06 15.04 Ю 3 10 км 6/1 1000 м
[Cu med, cong Ac trans]
+12.1 +8.7 80 +11 +14 тепло 1018.5 1009.5
09 15.04 ЮВ 5 10 км 8/5 1000 м
[Cb calv Ac trans]
+15.5 +7.5 59 +14 +17 тепло 1018.4 1009.5
12 15.04 ЮВ 6 10 км 6/6 1000 м
[Cu med, cong]
+15.8 +8.0 60 +15 +16 по сезону 1018.2 1009.3
15 15.04 В 6 10 км 5/5 1000 м
[Cu med, cong]
+13.7 +9.5 76 +12 +12 по сезону 1018.3 1009.3 +16.9
18 15.04 В 3 10 км ясно +9.4 +8.1 92 +7 +7 по сезону 1019.1 1010.0
21 15.04 В 5 4000 м дымка ясно +8.7 +7.2 90 +5 +5 прохладно 1018.6 1009.5
00 16.04 В 5 10 км 6/5 1000 м
[Sc Ac trans]
+8.2 +7.0 92 +4 +4 по сезону 1018.0 1008.9
03 16.04 В 5 4000 м дымка 4/1 1000 м
[Sc Ac trans]
+7.3 +6.4 94 +3 +3 прохладно 1018.3 1009.1 +7.1
06 16.04 В 6 10 км 6/1 1000 м
[Sc Ac trans]
+10.7 +7.2 79 +8 +9 по сезону 1018.9 1009.8
09 16.04 В 7-10
{10}
10 км 6/0
[Ac trans]
+17.6 +4.5 42 +17 +19 тепло 1018.6 1009.8
12 16.04 В 7-10
{10}
10 км 1/0
[Ac trans]
+19.6 +8.7 49 +20 +23 тепло 1017.6 1008.8
15 16.04 В 4
{10}
10 км 1/0
[Ac trans]
+18.1 +5.7 44 +18 +19 тепло 1018.4 1009.6 +20.2
18 16.04 В 3
{10}
10 км 3/0
[Ci sp]
+11.6 +3.7 58 +10 +10 по сезону 1020.0 1011.0
21 16.04 В 3 10 км ясно +9.0 +5.8 80 +7 +7 по сезону 1020.3 1011.2
00 17.04 В 4 10 км 1/0
[Ci fib]
+6.8 +5.1 89 +3 +3 прохладно 1020.7 1011.5
03 17.04 В 3 10 км 6/0
[Ac trans Ci fib]
+5.7 +4.9 95 +2 +2 холодно 1021.0 1011.8 +5.7
06 17.04 В 5 10 км 6/0
[Ci fib]
+12.9 +8.8 76 +11 +14 по сезону 1021.2 1012.2
09 17.04 В 6 10 км 6/1 1000 м
[Cu hum Ci fib]
+18.1 +10.0 59 +18 +22 тепло 1020.5 1011.7
12 17.04 В 6 10 км 6/0
[Ci fib]
+19.9 +7.5 45 +21 +24 комфорт 1018.6 1009.8
15 17.04 В 6
{11}
10 км 5/0
[Ci fib]
+18.6 +5.5 42 +18 +19 тепло 1017.8 1009.0 +20.1
18 17.04 В 6
{11}
10 км 5/0
[Ci fib]
+16.1 +5.4 49 +15 +15 тепло 1018.2 1009.3
21 17.04 В 3 10 км 4/0
[Ci fib]
+12.2 +5.5 64 +11 +11 тепло 1017.5 1008.5
00 18.04 В 5 10 км ясно +11.7 +4.8 63 +9 +9 тепло 1016.7 1007.7
03 18.04 В 4 10 км 4/0
[Ac trans Ci fib]
+10.2 +5.2 71 +8 +8 по сезону 1016.3 1007.2 +10.0
06 18.04 В 8-11
{11}
10 км 4/0
[Ac trans Ci fib]
+15.0 +7.1 59 +13 +14 тепло 1015.9 1007.0
09 18.04 В 12-16
{16}
10 км 5/0
[Ac trans Ci fib]
+19.5 +6.7 43 +19 +19 тепло 1014.7 1006.0
12 18.04 В 11-15
{16}
10 км 6/0
[Ac trans Ci fib]
+20.9 +4.2 33 +21 +21 комфорт 1013.2 1004.5
15 18.04 В 7-12
{15}
10 км 8/0
[Ac trans Ci fib]
+19.6 +6.6 43 +20 +20 тепло 1013.5 1004.8 +21.6
18 18.04 В 9-13
{15}
10 км 9/1 1000 м
[Cb calv Ac trans]
+16.6 +6.3 51 +15 +15 тепло 1014.4 1005.6
21 18.04 В 7-10
{13}
10 км 6/0
[Ac trans]
+14.4 +6.3 58 +12 +12 тепло 1014.3 1005.4
00 19.04 В 8-11
{13}
10 км 6/0
[Ci fib]
+13.2 +7.5 68 +11 +11 тепло 1014.3 1005.4
03 19.04 В 7-10
{11}
10 км 8/0
[Ac trans Ci fib]
+12.3 +8.4 77 +9 +9 по сезону 1015.7 1006.7 +12.0
06 19.04 В 8-12
{12}
10 км 8/0
[Ac trans Ci fib]
+15.2 +10.1 72 +13 +14 тепло 1016.2 1007.3
09 19.04 В 6
{12}
10 км 8/0
[Ac trans Ci fib]
+19.4 +10.9 58 +20 +24 тепло 1017.0 1008.2
12 19.04 В 9-12
{14}
10 км в посл. час ливневой дождь 9/3 1000 м
[Cb calv Ac trans Ci fib]
+21.9 +10.2 47 +24 +24 комфорт 1014.5 1005.8
15 19.04 В 6
{12}
10 км 9/1 1000 м
[Cb calv Ac trans Ci fib]
+19.8 +9.6 52 +21 +21 комфорт 1014.8 1006.1 +22.2 0.0
18 19.04 В 4
{12}
10 км 8/3 1000 м
[Cb calv Ac trans]
+16.9 +10.1 64 +16 +16 тепло 1015.3 1006.5
21 19.04 СВ 5 10 км 6/3 1000 м
[Cb calv Ac trans]
+13.9 +9.7 76 +12 +12 тепло 1014.0 1005.1
00 20.04 В 6 10 км 9/1 1000 м
[Cb calv Ac trans]
+15.0 +11.0 77 +13 +13 тепло 1011.2 1002.4
03 20.04 В 6
{10}
10 км 10/1 1000 м
[Cb calv Ac und]
+12.1 +9.1 82 +9 +9 по сезону 1012.1 1003.2 +12.1
06 20.04 СВ 5
{10}
10 км слабый ливневой дождь 10/5 900 м
[Cb calv Ac und]
+11.0 +8.7 86 +8 +9 по сезону 1012.9 1003.9 +11.0
09 20.04 В 4
{10}
10 км в посл. час ливневой дождь 10/6 900 м
[Cb calv Ac und]
+11.8 +11.2 96 +9 +11 прохладно 1014.8 1005.8
12 20.04 В 5
{11}
10 км {ливн. осадки} 9/6 300 м
[Cb calv Ac und]
+17.3 +14.1 81 +17 +18 тепло 1014.2 1005.4
15 20.04 В 4 10 км в посл. час ливневой дождь 9/5 1000 м
[Cb calv Ac trans]
+14.2 +12.7 91 +13 +13 по сезону 1014.9 1006.0 +17.5 4
18 20.04 В 3 10 км слабый ливневой дождь 9/6 960 м
[Cb calv Ac trans]
+13.6 +12.4 92 +12 +12 по сезону 1016.1 1007.2
21 20.04 ЮЗ 2 10 км {ливн. осадки} 8/4 1000 м
[Cb calv Ac trans]
+12.5 +11.3 92 +12 +12 тепло 1015.8 1006.8

 

Обсудить погоду в Ростове-на-Дону на МЕТЕОФОРУМЕ

 

Местоположение метеостанции Ростов-на-Дону (Ростовская область, Россия): широта 47.27 долгота 39.82 высота над уровнем моря 75 м.

В архиве по умолчанию представлена погода в Ростове-на-Дону за последнюю неделю. Архивные данные за месяц целиком и за предыдущие месяцы, начиная с января 2011 года, Вы можете получить, выбрав интересующий диапазон дат из раскрывающегося списка и нажав кнопку "Ввод!".

Внимание! Время в таблицах - всемирное. Для получения местного времени необходимо прибавить поправку, которая в Ростове-на-Дону равна 4 ч.

Ветер - указаны скорость ветра в м/с - средняя за 10 мин, порывы в срок и между сроками (в фигурных скобках) и направление, откуда дует ветер: С - северный, СВ - северо-восточный, В - восточный, ЮВ - юго-восточный, Ю - южный, ЮЗ - юго-западный, З - западный, СЗ - северо-западный.
Видимость - горизонтальная дальность видимости в метрах или километрах. При видимости от 1 до 10 км при отсутствии осадков обычно наблюдается дымка, при ухудшении видимости до 1 км и менее - туман. В сухую погоду видимость может ухудшаться дымом, пылью или мглою.
Явления - указаны атсосферные явления, наблюдавшиеся в срок или в последний час перед сроком; фигурными скобками обозначены явления, наблюдавшиеся между сроками (за 1-3 часа до срока); квадратными скобками обозначены град или гололедные отложения с указанием их диаметра в мм.
Облачность - указаны через наклонную черту общая и нижняя облачность в баллах и высота нижней границы облаков в метрах; квадратными скобками обозначены формы облаков: Ci - перистые, Cs - перисто-слоистые, Cc - перисто-кучевые, Ac - высококучевые, As - высокослоистые, Sc - слоисто-кучевые, Ns - слоисто-дождевые, Cu - кучевые, Cb - кучево-дождевые. Подробнее классификацию облаков см. в Атласе облаков (PDF).
T - Температура воздуха - температура, измеренная на высоте 2 м над землей.
Td - Температура точки росы - температура, при понижении до которой содержащийся в воздухе водяной пар достигнет насыщения.
f - Относительная влажность воздуха - влажноcть воздуха, измеренная на высоте 2 м над землей.
Te - Эффективная температура - температура, которую ощущает одетый по сезону человек в тени. Характеристика душности погоды. При расчете учитывается влияние влажности воздуха и скорости ветра на теплоощущения человека.
Tes - Эффективная температура на солнце - температура, которую ощущает человек, с поправкой на солнечный нагрев. Характеристика знойности погоды. Зависит от высоты солнца над горизонтом, облачности и скорости ветра. Ночью, в пасмурную погоду, а также при ветре 12 м/с и более поправка равна нулю.
P - Атмосферное давление - приведенное к уровню моря атмосферное давление.
Po - Атмосферное давление - измеренное на уровне метеостанции атмосферное давление.
Tmin - Минимальная температура - минимум температуры воздуха на высоте 2 м над землей.
Tmax - Максимальная температура - максимум температуры воздуха на высоте 2 м над землей.
R - Количество осадков - Количество выпавших осадков, мм.
S - Снежный покров - Высота снежного покрова, см.